Time,TemperatureF,DewpointF,PressureIn,WindDirection,WindDirectionDegrees,WindSpeedMPH,WindSpeedGustMPH,Humidity,HourlyPrecipIn,Conditions,Clouds,dailyrainin,SoftwareType,DateUTC
2013-05-18 00:02:00,71.0,59.0,29.72,South,182,0.0,0.0,67,0.00,,,0.00,,2013-05-18 05:02:00,
2013-05-18 00:13:00,71.0,59.0,29.72,South,182,0.0,0.0,67,0.00,,,0.00,,2013-05-18 05:13:00,
2013-05-18 00:22:00,71.0,59.0,29.72,South,182,0.0,0.0,67,0.00,,,0.00,,2013-05-18 05:22:00,
2013-05-18 00:32:00,69.0,59.0,29.73,South,182,0.0,0.0,71,0.00,,,0.00,,2013-05-18 05:32:00,
2013-05-18 00:42:00,69.0,59.0,29.73,South,182,0.0,0.0,71,0.00,,,0.00,,2013-05-18 05:42:00,
2013-05-18 00:52:00,68.0,59.0,29.73,South,182,0.0,0.0,73,0.00,,,0.00,,2013-05-18 05:52:00,
2013-05-18 01:02:00,68.0,59.0,29.73,South,182,0.0,0.0,73,0.00,,,0.00,,2013-05-18 06:02:00,
2013-05-18 01:11:00,68.0,59.0,29.73,South,182,0.0,0.0,73,0.00,,,0.00,,2013-05-18 06:11:00,
2013-05-18 01:22:00,67.0,59.0,29.73,South,182,0.0,0.0,76,0.00,,,0.00,,2013-05-18 06:22:00,
2013-05-18 01:32:00,67.0,59.0,29.73,South,182,0.0,0.0,76,0.00,,,0.00,,2013-05-18 06:32:00,
2013-05-18 01:42:00,67.0,59.0,29.73,South,182,0.0,0.0,76,0.00,,,0.00,,2013-05-18 06:42:00,
2013-05-18 01:52:00,66.0,59.0,29.72,South,182,0.0,0.0,78,0.00,,,0.00,,2013-05-18 06:52:00,
2013-05-18 02:01:00,66.0,59.0,29.72,South,182,0.0,0.0,79,0.00,,,0.00,,2013-05-18 07:01:00,
2013-05-18 02:12:00,66.0,59.0,29.72,South,182,0.0,0.0,79,0.00,,,0.00,,2013-05-18 07:12:00,
2013-05-18 02:21:00,65.0,59.0,29.72,South,182,0.0,0.0,81,0.00,,,0.00,,2013-05-18 07:21:00,
2013-05-18 02:31:00,65.0,59.0,29.72,South,182,0.0,0.0,81,0.00,,,0.00,,2013-05-18 07:31:00,
2013-05-18 02:42:00,65.0,59.0,29.72,South,182,0.0,0.0,81,0.00,,,0.00,,2013-05-18 07:42:00,
2013-05-18 02:52:00,65.0,59.0,29.72,South,182,0.0,0.0,81,0.00,,,0.00,,2013-05-18 07:52:00,
2013-05-18 03:01:00,65.0,59.0,29.72,South,182,0.0,0.0,81,0.00,,,0.00,,2013-05-18 08:01:00,
2013-05-18 03:11:00,65.0,59.0,29.72,South,182,0.0,0.0,81,0.00,,,0.00,,2013-05-18 08:11:00,
2013-05-18 03:33:00,63.0,58.0,29.72,South,182,0.0,0.0,85,0.00,,,0.00,,2013-05-18 08:33:00,
2013-05-18 03:42:00,63.0,58.0,29.72,South,182,0.0,0.0,85,0.00,,,0.00,,2013-05-18 08:42:00,
2013-05-18 03:52:00,63.0,59.0,29.71,South,182,0.0,0.0,86,0.00,,,0.00,,2013-05-18 08:52:00,
2013-05-18 04:02:00,63.0,59.0,29.71,South,182,0.0,0.0,87,0.00,,,0.00,,2013-05-18 09:02:00,
2013-05-18 04:11:00,63.0,59.0,29.71,South,182,0.0,0.0,87,0.00,,,0.00,,2013-05-18 09:11:00,
2013-05-18 04:22:00,62.0,58.0,29.71,South,182,0.0,0.0,87,0.00,,,0.00,,2013-05-18 09:22:00,
2013-05-18 04:32:00,62.0,58.0,29.71,South,182,0.0,0.0,87,0.00,,,0.00,,2013-05-18 09:32:00,
2013-05-18 04:43:00,62.0,58.0,29.71,South,182,0.0,0.0,87,0.00,,,0.00,,2013-05-18 09:43:00,
2013-05-18 04:53:00,62.0,58.0,29.71,South,182,0.0,0.0,88,0.00,,,0.00,,2013-05-18 09:53:00,
2013-05-18 05:03:00,62.0,59.0,29.72,South,182,0.0,0.0,89,0.00,,,0.00,,2013-05-18 10:03:00,
2013-05-18 05:12:00,62.0,59.0,29.72,South,182,0.0,0.0,89,0.00,,,0.00,,2013-05-18 10:12:00,
2013-05-18 05:23:00,61.0,58.0,29.71,South,182,0.0,0.0,90,0.00,,,0.00,,2013-05-18 10:23:00,
2013-05-18 05:33:00,61.0,58.0,29.72,South,182,0.0,0.0,90,0.00,,,0.00,,2013-05-18 10:33:00,
2013-05-18 05:42:00,61.0,58.0,29.72,South,182,0.0,0.0,90,0.00,,,0.00,,2013-05-18 10:42:00,
2013-05-18 05:53:00,61.0,58.0,29.72,South,182,0.0,0.0,90,0.00,,,0.00,,2013-05-18 10:53:00,
2013-05-18 06:03:00,61.0,58.0,29.72,South,182,0.0,0.0,91,0.00,,,0.00,,2013-05-18 11:03:00,
2013-05-18 06:12:00,61.0,58.0,29.72,South,182,0.0,0.0,91,0.00,,,0.00,,2013-05-18 11:12:00,
2013-05-18 06:22:00,61.0,58.0,29.72,South,182,0.0,0.0,91,0.00,,,0.00,,2013-05-18 11:22:00,
2013-05-18 06:33:00,61.0,58.0,29.72,South,182,0.0,0.0,91,0.00,,,0.00,,2013-05-18 11:33:00,
2013-05-18 06:42:00,61.0,58.0,29.72,South,182,0.0,0.0,91,0.00,,,0.00,,2013-05-18 11:42:00,
2013-05-18 06:52:00,61.0,59.0,29.73,South,182,0.0,0.0,92,0.00,,,0.00,,2013-05-18 11:52:00,
2013-05-18 07:02:00,61.0,59.0,29.73,South,182,0.0,0.0,92,0.00,,,0.00,,2013-05-18 12:02:00,
2013-05-18 07:12:00,61.0,59.0,29.73,South,182,0.0,0.0,92,0.00,,,0.00,,2013-05-18 12:12:00,
2013-05-18 07:23:00,62.0,60.0,29.73,South,182,0.0,0.0,92,0.00,,,0.00,,2013-05-18 12:23:00,
2013-05-18 07:33:00,64.0,61.0,29.73,South,182,0.0,0.0,91,0.00,,,0.00,,2013-05-18 12:33:00,
2013-05-18 07:42:00,64.0,61.0,29.73,South,182,0.0,0.0,91,0.00,,,0.00,,2013-05-18 12:42:00,
2013-05-18 07:52:00,66.0,61.0,29.73,South,182,0.0,0.0,84,0.00,,,0.00,,2013-05-18 12:52:00,
2013-05-18 08:01:00,68.0,61.0,29.72,South,182,0.0,0.0,78,0.00,,,0.00,,2013-05-18 13:01:00,
2013-05-18 08:11:00,68.0,61.0,29.72,South,182,0.0,0.0,78,0.00,,,0.00,,2013-05-18 13:11:00,
2013-05-18 08:21:00,68.0,60.0,29.72,South,182,0.0,0.0,76,0.00,,,0.00,,2013-05-18 13:21:00,
2013-05-18 08:33:00,70.0,61.0,29.72,South,182,0.0,0.0,73,0.00,,,0.00,,2013-05-18 13:33:00,
2013-05-18 08:43:00,70.0,61.0,29.72,South,182,0.0,0.0,73,0.00,,,0.00,,2013-05-18 13:43:00,
2013-05-18 08:52:00,71.0,61.0,29.72,South,182,0.0,3.0,71,0.00,,,0.00,,2013-05-18 13:52:00,
2013-05-18 09:03:00,71.0,61.0,29.72,South,181,0.0,6.0,70,0.00,,,0.00,,2013-05-18 14:03:00,
2013-05-18 09:12:00,71.0,61.0,29.72,South,181,0.0,6.0,70,0.00,,,0.00,,2013-05-18 14:12:00,
2013-05-18 09:22:00,71.0,61.0,29.72,South,181,0.0,6.0,70,0.00,,,0.00,,2013-05-18 14:22:00,
2013-05-18 09:33:00,72.0,61.0,29.71,South,174,1.0,9.0,69,0.00,,,0.00,,2013-05-18 14:33:00,
2013-05-18 09:42:00,72.0,61.0,29.71,South,174,1.0,9.0,69,0.00,,,0.00,,2013-05-18 14:42:00,
2013-05-18 09:54:00,73.0,62.0,29.71,South,178,0.0,0.0,69,0.00,,,0.00,,2013-05-18 14:54:00,
2013-05-18 10:03:00,74.0,62.0,29.72,South,178,0.0,5.0,67,0.00,,,0.00,,2013-05-18 15:03:00,
2013-05-18 10:13:00,74.0,62.0,29.72,South,178,0.0,5.0,67,0.00,,,0.00,,2013-05-18 15:13:00,
2013-05-18 10:23:00,75.0,62.0,29.72,South,178,0.0,4.0,65,0.00,,,0.00,,2013-05-18 15:23:00,
2013-05-18 10:33:00,75.0,62.0,29.72,South,178,0.0,4.0,65,0.00,,,0.00,,2013-05-18 15:33:00,
2013-05-18 10:43:00,75.0,62.0,29.72,South,178,0.0,4.0,65,0.00,,,0.00,,2013-05-18 15:43:00,
2013-05-18 10:53:00,77.0,63.0,29.71,SE,134,0.0,1.0,62,0.00,,,0.00,,2013-05-18 15:53:00,
2013-05-18 11:03:00,77.0,63.0,29.71,SE,134,0.0,1.0,62,0.00,,,0.00,,2013-05-18 16:03:00,
2013-05-18 11:13:00,77.0,63.0,29.71,SE,134,0.0,1.0,62,0.00,,,0.00,,2013-05-18 16:13:00,
2013-05-18 11:22:00,77.0,63.0,29.71,SE,134,0.0,1.0,62,0.00,,,0.00,,2013-05-18 16:22:00,
2013-05-18 11:33:00,77.0,62.0,29.73,South,175,0.0,3.0,60,0.00,,,0.00,,2013-05-18 16:33:00,
2013-05-18 11:42:00,77.0,62.0,29.73,South,175,0.0,3.0,60,0.00,,,0.00,,2013-05-18 16:42:00,
2013-05-18 11:52:00,77.0,62.0,29.73,South,175,0.0,3.0,60,0.00,,,0.00,,2013-05-18 16:52:00,
2013-05-18 12:02:00,79.0,63.0,29.71,SW,223,0.0,0.0,58,0.00,,,0.00,,2013-05-18 17:02:00,
2013-05-18 12:12:00,79.0,63.0,29.71,SW,223,0.0,0.0,58,0.00,,,0.00,,2013-05-18 17:12:00,
2013-05-18 12:22:00,79.0,62.0,29.71,SSW,194,0.0,1.0,56,0.00,,,0.00,,2013-05-18 17:22:00,
2013-05-18 12:32:00,79.0,62.0,29.71,SSW,194,0.0,1.0,56,0.00,,,0.00,,2013-05-18 17:32:00,
2013-05-18 12:42:00,79.0,62.0,29.71,SSW,194,0.0,1.0,56,0.00,,,0.00,,2013-05-18 17:42:00,
2013-05-18 12:52:00,81.0,62.0,29.68,SSW,194,0.0,6.0,52,0.00,,,0.00,,2013-05-18 17:52:00,
2013-05-18 13:01:00,81.0,62.0,29.68,SSW,194,0.0,6.0,52,0.00,,,0.00,,2013-05-18 18:01:00,
2013-05-18 13:12:00,81.0,62.0,29.68,SSW,194,0.0,6.0,52,0.00,,,0.00,,2013-05-18 18:12:00,
2013-05-18 13:21:00,81.0,62.0,29.68,SSW,194,0.0,6.0,52,0.00,,,0.00,,2013-05-18 18:21:00,
2013-05-18 13:32:00,84.0,62.0,29.65,SSW,205,0.0,0.0,48,0.00,,,0.00,,2013-05-18 18:32:00,
2013-05-18 13:42:00,84.0,62.0,29.65,SSW,205,0.0,0.0,48,0.00,,,0.00,,2013-05-18 18:42:00,
2013-05-18 13:52:00,84.0,62.0,29.65,SSW,205,0.0,0.0,48,0.00,,,0.00,,2013-05-18 18:52:00,
2013-05-18 14:02:00,85.0,60.0,29.65,South,187,3.0,13.0,43,0.00,,,0.00,,2013-05-18 19:02:00,
2013-05-18 14:12:00,85.0,60.0,29.65,South,187,3.0,13.0,43,0.00,,,0.00,,2013-05-18 19:12:00,
2013-05-18 14:22:00,86.0,61.0,29.65,South,180,2.0,13.0,43,0.00,,,0.00,,2013-05-18 19:22:00,
2013-05-18 14:32:00,86.0,61.0,29.65,South,180,2.0,13.0,43,0.00,,,0.00,,2013-05-18 19:32:00,
2013-05-18 14:42:00,86.0,61.0,29.65,South,180,2.0,13.0,43,0.00,,,0.00,,2013-05-18 19:42:00,
2013-05-18 14:52:00,86.0,61.0,29.65,South,180,2.0,13.0,43,0.00,,,0.00,,2013-05-18 19:52:00,
2013-05-18 15:22:00,85.0,59.0,29.63,ESE,118,2.0,11.0,42,0.00,,,0.00,,2013-05-18 20:22:00,
2013-05-18 15:32:00,85.0,59.0,29.63,ESE,118,2.0,11.0,42,0.00,,,0.00,,2013-05-18 20:32:00,
2013-05-18 15:42:00,85.0,59.0,29.63,ESE,118,2.0,11.0,42,0.00,,,0.00,,2013-05-18 20:42:00,
2013-05-18 15:52:00,84.0,61.0,29.62,SSW,198,4.0,17.0,46,0.00,,,0.00,,2013-05-18 20:52:00,
2013-05-18 16:01:00,83.0,61.0,29.62,South,174,4.0,15.0,47,0.00,,,0.00,,2013-05-18 21:01:00,
2013-05-18 16:12:00,83.0,61.0,29.62,South,174,4.0,15.0,47,0.00,,,0.00,,2013-05-18 21:12:00,
2013-05-18 16:21:00,83.0,61.0,29.62,South,191,3.0,14.0,47,0.00,,,0.00,,2013-05-18 21:21:00,
2013-05-18 16:32:00,85.0,62.0,29.61,South,169,3.0,15.0,47,0.00,,,0.00,,2013-05-18 21:32:00,
2013-05-18 16:43:00,85.0,62.0,29.61,South,169,3.0,15.0,47,0.00,,,0.00,,2013-05-18 21:43:00,
2013-05-18 16:53:00,86.0,63.0,29.61,SSE,162,2.0,12.0,46,0.00,,,0.00,,2013-05-18 21:53:00,
2013-05-18 17:03:00,86.0,63.0,29.59,SSW,201,2.0,14.0,46,0.00,,,0.00,,2013-05-18 22:03:00,
2013-05-18 17:12:00,86.0,63.0,29.59,SSW,201,2.0,14.0,46,0.00,,,0.00,,2013-05-18 22:12:00,
2013-05-18 17:23:00,86.0,63.0,29.59,SSW,201,2.0,14.0,46,0.00,,,0.00,,2013-05-18 22:23:00,
2013-05-18 17:33:00,86.0,63.0,29.59,ESE,107,1.0,13.0,47,0.00,,,0.00,,2013-05-18 22:33:00,
2013-05-18 17:42:00,86.0,63.0,29.59,SSW,200,0.0,9.0,47,0.00,,,0.00,,2013-05-18 22:42:00,
2013-05-18 17:53:00,86.0,63.0,29.59,SSW,200,0.0,9.0,47,0.00,,,0.00,,2013-05-18 22:53:00,
2013-05-18 18:01:00,85.0,64.0,29.57,SSE,163,0.0,4.0,49,0.00,,,0.00,,2013-05-18 23:01:00,
2013-05-18 18:12:00,85.0,64.0,29.57,SSE,163,0.0,4.0,49,0.00,,,0.00,,2013-05-18 23:12:00,
2013-05-18 18:22:00,85.0,64.0,29.57,SSE,163,0.0,4.0,49,0.00,,,0.00,,2013-05-18 23:22:00,
2013-05-18 18:32:00,85.0,64.0,29.57,SSE,163,0.0,4.0,49,0.00,,,0.00,,2013-05-18 23:32:00,
2013-05-18 18:41:00,85.0,64.0,29.57,SSE,163,0.0,4.0,49,0.00,,,0.00,,2013-05-18 23:41:00,
2013-05-18 18:53:00,84.0,63.0,29.56,SSE,152,1.0,11.0,50,0.00,,,0.00,,2013-05-18 23:53:00,
2013-05-18 19:01:00,84.0,63.0,29.56,South,184,1.0,11.0,50,0.00,,,0.00,,2013-05-19 00:01:00,
2013-05-18 19:12:00,84.0,63.0,29.56,South,184,1.0,11.0,50,0.00,,,0.00,,2013-05-19 00:12:00,
2013-05-18 19:21:00,84.0,63.0,29.55,SSW,200,0.0,9.0,50,0.00,,,0.00,,2013-05-19 00:21:00,
2013-05-18 19:32:00,83.0,63.0,29.55,SSE,165,0.0,8.0,51,0.00,,,0.00,,2013-05-19 00:32:00,
2013-05-18 19:41:00,83.0,63.0,29.55,SSE,165,0.0,8.0,51,0.00,,,0.00,,2013-05-19 00:41:00,
2013-05-18 19:52:00,82.0,63.0,29.55,SSE,151,1.0,12.0,52,0.00,,,0.00,,2013-05-19 00:52:00,
2013-05-18 20:01:00,82.0,63.0,29.55,SSE,167,1.0,12.0,53,0.00,,,0.00,,2013-05-19 01:01:00,
2013-05-18 20:11:00,82.0,63.0,29.55,SSE,167,1.0,12.0,53,0.00,,,0.00,,2013-05-19 01:11:00,
2013-05-18 20:21:00,81.0,63.0,29.54,SSE,161,0.0,6.0,55,0.00,,,0.00,,2013-05-19 01:21:00,
2013-05-18 20:32:00,81.0,63.0,29.54,SSE,161,0.0,6.0,55,0.00,,,0.00,,2013-05-19 01:32:00,
2013-05-18 20:42:00,81.0,63.0,29.54,SSE,161,0.0,6.0,55,0.00,,,0.00,,2013-05-19 01:42:00,
2013-05-18 20:52:00,80.0,63.0,29.53,SSE,154,0.0,2.0,57,0.00,,,0.00,,2013-05-19 01:52:00,
2013-05-18 21:01:00,80.0,64.0,29.53,SSE,154,0.0,3.0,58,0.00,,,0.00,,2013-05-19 02:01:00,
2013-05-18 21:11:00,80.0,64.0,29.53,SSE,154,0.0,3.0,58,0.00,,,0.00,,2013-05-19 02:11:00,
2013-05-18 21:21:00,79.0,63.0,29.53,SSE,151,0.0,1.0,58,0.00,,,0.00,,2013-05-19 02:21:00,
2013-05-18 21:32:00,79.0,63.0,29.53,SSE,151,0.0,1.0,58,0.00,,,0.00,,2013-05-19 02:32:00,
2013-05-18 21:42:00,79.0,63.0,29.53,SSE,151,0.0,1.0,58,0.00,,,0.00,,2013-05-19 02:42:00,
2013-05-18 21:52:00,79.0,64.0,29.54,SSE,168,0.0,0.0,60,0.00,,,0.00,,2013-05-19 02:52:00,
2013-05-18 22:01:00,78.0,63.0,29.54,SSE,160,0.0,2.0,61,0.00,,,0.00,,2013-05-19 03:01:00,
2013-05-18 22:11:00,78.0,63.0,29.54,SSE,160,0.0,2.0,61,0.00,,,0.00,,2013-05-19 03:11:00,
2013-05-18 22:22:00,78.0,63.0,29.54,SSE,160,0.0,2.0,61,0.00,,,0.00,,2013-05-19 03:22:00,
2013-05-18 22:33:00,77.0,64.0,29.53,SSE,166,0.0,1.0,64,0.00,,,0.00,,2013-05-19 03:33:00,
2013-05-18 22:42:00,77.0,64.0,29.53,SSE,166,0.0,1.0,64,0.00,,,0.00,,2013-05-19 03:42:00,
2013-05-18 22:53:00,77.0,64.0,29.54,SSE,166,0.0,2.0,65,0.00,,,0.00,,2013-05-19 03:53:00,
2013-05-18 23:02:00,77.0,64.0,29.54,SSE,166,0.0,0.0,65,0.00,,,0.00,,2013-05-19 04:02:00,
2013-05-18 23:12:00,77.0,64.0,29.54,SSE,166,0.0,0.0,65,0.00,,,0.00,,2013-05-19 04:12:00,
2013-05-18 23:23:00,77.0,65.0,29.53,South,171,0.0,0.0,66,0.00,,,0.00,,2013-05-19 04:23:00,
2013-05-18 23:33:00,77.0,65.0,29.53,South,171,0.0,2.0,67,0.00,,,0.00,,2013-05-19 04:33:00,
2013-05-18 23:42:00,77.0,65.0,29.53,South,171,0.0,2.0,67,0.00,,,0.00,,2013-05-19 04:42:00,
2013-05-18 23:53:00,77.0,65.0,29.54,South,169,0.0,0.0,67,0.00,,,0.00,,2013-05-19 04:53:00,